When you browse on this site, cookies collect data to enhance your experience and personalize the content and advertising you see.
Visit our Privacy Policy to learn more. By continuing to use the site, you agree to this use of cookies and data.
  • In Austria
  • List of Countries
  • For 7 days
  • Water Temperature
  • Satellite Maps
  • Weather Map
  • News
  • Weather Widgets
  • user-avatar
    Login

    Hourly Weather Lugi

    Today, 19 July, Friday

    Time Temperature Precipitation Wind Pressure Humidity
    00:00 +13°C° 0 mm 3 mps 746 mmHg 96%
    01:00 +13°C° 0 mm 3 mps 746 mmHg 96%
    02:00 +12°C° 0 mm 3 mps 746 mmHg 96%
    03:00 +12°C° 0 mm 3 mps 747 mmHg 96%
    04:00 +12°C° 0 mm 3 mps 747 mmHg 97%
    05:00 +13°C° 0 mm 2 mps 747 mmHg 97%
    06:00 +13°C° 0 mm 3 mps 747 mmHg 92%
    07:00 +16°C° 0 mm 3 mps 748 mmHg 87%
    08:00 +18°C° 0 mm 3 mps 748 mmHg 82%
    09:00 +19°C° 0.3 mm 3 mps 748 mmHg 77%
    10:00 +21°C° 0.3 mm 3 mps 748 mmHg 72%
    11:00 +22°C° 0.3 mm 3 mps 748 mmHg 67%
    12:00 +22°C° 0.3 mm 3 mps 748 mmHg 63%
    13:00 +24°C° 0.3 mm 3 mps 748 mmHg 59%
    14:00 +25°C° 0.3 mm 3 mps 748 mmHg 55%
    15:00 +24°C° 0.4 mm 3 mps 748 mmHg 60%
    16:00 +24°C° 0.4 mm 3 mps 748 mmHg 65%
    17:00 +22°C° 0.4 mm 3 mps 748 mmHg 70%
    18:00 +21°C° 0.1 mm 2 mps 748 mmHg 76%
    19:00 +19°C° 0.1 mm 2 mps 748 mmHg 81%
    20:00 +19°C° 0.1 mm 1 mps 749 mmHg 86%
    21:00 +18°C° 0 mm 1 mps 749 mmHg 88%
    22:00 +16°C° 0 mm 1 mps 749 mmHg 90%
    23:00 +15°C° 0 mm 2 mps 749 mmHg 91%

    Tomorrow, 20 July, Saturday

    Time Temperature Precipitation Wind Pressure Humidity
    00:00 +14°C° 0 mm 1 mps 750 mmHg 92%
    01:00 +14°C° 0 mm 1 mps 750 mmHg 92%
    02:00 +13°C° 0 mm 1 mps 750 mmHg 92%
    03:00 +13°C° 0 mm 1 mps 750 mmHg 92%
    04:00 +13°C° 0 mm 1 mps 750 mmHg 92%
    05:00 +13°C° 0 mm 1 mps 750 mmHg 93%
    06:00 +15°C° 0 mm 1 mps 751 mmHg 87%
    07:00 +18°C° 0 mm 1 mps 751 mmHg 82%
    08:00 +20°C° 0 mm 1 mps 751 mmHg 76%
    09:00 +22°C° 0 mm 1 mps 751 mmHg 70%
    10:00 +23°C° 0 mm 1 mps 752 mmHg 63%
    11:00 +25°C° 0 mm 1 mps 752 mmHg 56%
    12:00 +25°C° 0 mm 1 mps 752 mmHg 55%
    13:00 +25°C° 0 mm 1 mps 752 mmHg 53%
    14:00 +26°C° 0 mm 2 mps 751 mmHg 52%
    15:00 +25°C° 0 mm 1 mps 751 mmHg 54%
    16:00 +25°C° 0 mm 1 mps 751 mmHg 56%
    17:00 +25°C° 0 mm 1 mps 752 mmHg 58%
    18:00 +24°C° 0 mm 1 mps 752 mmHg 63%
    19:00 +22°C° 0 mm 1 mps 752 mmHg 69%
    20:00 +20°C° 0 mm 1 mps 752 mmHg 75%
    21:00 +19°C° 0 mm 1 mps 752 mmHg 76%
    22:00 +18°C° 0 mm 1 mps 752 mmHg 77%
    23:00 +16°C° 0 mm 1 mps 752 mmHg 79%

    Day after tomorrow, 21 July, Sunday

    Time Temperature Precipitation Wind Pressure Humidity
    00:00 +16°C° 0 mm 1 mps 752 mmHg 80%
    01:00 +16°C° 0 mm 1 mps 752 mmHg 81%
    02:00 +14°C° 0 mm 0 mps 752 mmHg 82%
    03:00 +15°C° 0 mm 1 mps 752 mmHg 82%
    04:00 +15°C° 0 mm 1 mps 752 mmHg 83%
    05:00 +15°C° 0 mm 1 mps 752 mmHg 83%
    06:00 +18°C° 0 mm 1 mps 752 mmHg 78%
    07:00 +20°C° 0 mm 1 mps 752 mmHg 73%
    08:00 +22°C° 0 mm 1 mps 752 mmHg 68%
    09:00 +23°C° 0 mm 2 mps 752 mmHg 64%
    10:00 +25°C° 0 mm 2 mps 752 mmHg 60%
    11:00 +26°C° 0 mm 2 mps 752 mmHg 56%
    12:00 +26°C° 0 mm 2 mps 752 mmHg 54%
    13:00 +27°C° 0 mm 2 mps 752 mmHg 52%
    14:00 +28°C° 0 mm 2 mps 751 mmHg 51%
    15:00 +28°C° 0 mm 2 mps 751 mmHg 53%
    16:00 +27°C° 0 mm 2 mps 751 mmHg 55%
    17:00 +27°C° 0 mm 2 mps 750 mmHg 57%
    18:00 +26°C° 0.1 mm 2 mps 750 mmHg 64%
    19:00 +24°C° 0.1 mm 2 mps 750 mmHg 71%
    20:00 +21°C° 0.1 mm 2 mps 750 mmHg 77%
    21:00 +21°C° 1.1 mm 2 mps 750 mmHg 83%
    22:00 +20°C° 1.1 mm 2 mps 749 mmHg 88%
    23:00 +19°C° 1.1 mm 3 mps 749 mmHg 94%

    22 July, Monday

    Time Temperature Precipitation Wind Pressure Humidity
    00:00 +19°C° 0.8 mm 3 mps 749 mmHg 95%
    01:00 +19°C° 0.8 mm 3 mps 749 mmHg 96%
    02:00 +19°C° 0.8 mm 3 mps 749 mmHg 97%
    03:00 +18°C° 0 mm 3 mps 749 mmHg 97%
    04:00 +17°C° 0 mm 3 mps 749 mmHg 97%
    05:00 +16°C° 0 mm 3 mps 749 mmHg 97%
    06:00 +17°C° 0 mm 3 mps 749 mmHg 95%
    07:00 +18°C° 0 mm 3 mps 749 mmHg 92%
    08:00 +19°C° 0 mm 3 mps 749 mmHg 90%
    09:00 +21°C° 0 mm 3 mps 749 mmHg 82%
    10:00 +23°C° 0 mm 4 mps 750 mmHg 74%
    11:00 +25°C° 0 mm 4 mps 750 mmHg 65%
    12:00 +26°C° 0 mm 4 mps 750 mmHg 64%
    13:00 +26°C° 0 mm 5 mps 750 mmHg 62%
    14:00 +27°C° 0 mm 5 mps 750 mmHg 60%
    15:00 +26°C° 0.4 mm 5 mps 749 mmHg 65%
    16:00 +25°C° 0.4 mm 4 mps 749 mmHg 70%
    17:00 +23°C° 0.4 mm 4 mps 749 mmHg 75%
    18:00 +22°C° 0.2 mm 3 mps 749 mmHg 80%
    19:00 +21°C° 0.2 mm 3 mps 749 mmHg 85%
    20:00 +20°C° 0.2 mm 3 mps 750 mmHg 90%
    21:00 +19°C° 0 mm 3 mps 750 mmHg 91%
    22:00 +18°C° 0 mm 3 mps 750 mmHg 93%
    23:00 +18°C° 0 mm 3 mps 750 mmHg 94%

    23 July, Tuesday

    Time Temperature Precipitation Wind Pressure Humidity
    00:00 +17°C° 0 mm 3 mps 749 mmHg 94%
    01:00 +17°C° 0 mm 3 mps 749 mmHg 95%
    02:00 +16°C° 0 mm 3 mps 749 mmHg 96%
    03:00 +15°C° 0 mm 4 mps 749 mmHg 96%
    04:00 +15°C° 0 mm 4 mps 749 mmHg 96%
    05:00 +14°C° 0 mm 4 mps 749 mmHg 96%
    06:00 +15°C° 0 mm 4 mps 749 mmHg 94%
    07:00 +17°C° 0 mm 4 mps 749 mmHg 91%
    08:00 +17°C° 0 mm 4 mps 749 mmHg 89%
    09:00 +18°C° 0 mm 4 mps 750 mmHg 83%
    10:00 +20°C° 0 mm 5 mps 750 mmHg 78%
    11:00 +21°C° 0 mm 5 mps 750 mmHg 73%
    12:00 +21°C° 0.1 mm 5 mps 750 mmHg 71%
    13:00 +22°C° 0.1 mm 5 mps 749 mmHg 69%
    14:00 +22°C° 0.1 mm 5 mps 749 mmHg 67%
    15:00 +23°C° 0 mm 5 mps 749 mmHg 68%
    16:00 +23°C° 0 mm 5 mps 749 mmHg 68%
    17:00 +23°C° 0 mm 5 mps 749 mmHg 69%
    18:00 +21°C° 0.4 mm 4 mps 749 mmHg 77%
    19:00 +20°C° 0.4 mm 3 mps 749 mmHg 84%
    20:00 +18°C° 0.4 mm 3 mps 749 mmHg 92%
    21:00 +18°C° 0 mm 2 mps 749 mmHg 93%
    22:00 +17°C° 0 mm 2 mps 749 mmHg 94%
    23:00 +16°C° 0 mm 2 mps 749 mmHg 95%

    24 July, Wednesday

    Time Temperature Precipitation Wind Pressure Humidity
    00:00 +16°C° 0 mm 2 mps 749 mmHg 95%
    01:00 +16°C° 0 mm 2 mps 749 mmHg 95%
    02:00 +16°C° 0 mm 2 mps 749 mmHg 95%
    03:00 +15°C° 0 mm 2 mps 749 mmHg 95%
    04:00 +15°C° 0 mm 2 mps 749 mmHg 95%
    05:00 +15°C° 0 mm 2 mps 749 mmHg 96%
    06:00 +16°C° 0 mm 2 mps 749 mmHg 93%
    07:00 +17°C° 0 mm 2 mps 749 mmHg 90%
    08:00 +19°C° 0 mm 3 mps 749 mmHg 87%
    09:00 +20°C° 0 mm 3 mps 749 mmHg 77%
    10:00 +21°C° 0 mm 4 mps 749 mmHg 67%
    11:00 +23°C° 0 mm 4 mps 749 mmHg 57%
    12:00 +23°C° 0 mm 5 mps 749 mmHg 56%
    13:00 +23°C° 0 mm 5 mps 749 mmHg 55%
    14:00 +23°C° 0 mm 5 mps 748 mmHg 54%
    15:00 +23°C° 0 mm 5 mps 748 mmHg 56%
    16:00 +22°C° 0 mm 5 mps 748 mmHg 58%
    17:00 +22°C° 0 mm 5 mps 748 mmHg 60%
    18:00 +20°C° 0 mm 4 mps 748 mmHg 66%
    19:00 +19°C° 0 mm 3 mps 748 mmHg 71%
    20:00 +17°C° 0 mm 2 mps 748 mmHg 77%
    21:00 +17°C° 0 mm 2 mps 748 mmHg 81%
    22:00 +16°C° 0 mm 2 mps 748 mmHg 85%
    23:00 +15°C° 0 mm 2 mps 748 mmHg 89%
    Show more